This demonstration page uses our WeatherBlox Daily Observations layout. Learn more.

Left ArrowRight Arrow

Hourly Observations for November 5, 2018

Temp ( °F °C ) Dew Point ( °F °C ) Humidity (%) Winds ( mph kmh ) Pressure ( in mb ) Visibility ( mi km ) Precip ( " mm )
12:35 am 00:35 Cloudy 39 3.9 34 1.1 82 82 NW 16 26 29.77 1008 10 16 N/A
12:42 am 00:42 Cloudy 39 4 36 2 87 87 WNW 13 20 29.77 1008 10 16 N/A
12:53 am 00:53 Cloudy 38 3.3 34 1.1 86 86 WNW 10 17 29.74 1007 10 16 N/A
1:31 am 01:31 Cloudy 37 2.8 34 1.1 89 89 W 10 17 29.80 1009 10 16 N/A
1:53 am 01:53 Cloudy 36 2.2 32 undefined 86 86 NW 15 24 29.78 1008 10 16 N/A
2:44 am 02:44 Cloudy with Light Snow 36 2 32 undefined 87 87 WNW 14 22 29.83 1010 10 16 N/A
2:53 am 02:53 Cloudy with Light Snow 34 1.1 32 undefined 92 92 WNW 15 24 29.81 1009 8 13 N/A
3:04 am 03:04 Cloudy with Light Snow 34 1 32 undefined 93 93 W 13 20 29.85 1011 4 6 N/A
3:10 am 03:10 Cloudy with Light Snow 34 1 30 -1 87 87 W 15 24 29.85 1011 2 3 N/A
3:20 am 03:20 Cloudy with Light Snow 34 1 30 -1 87 87 W 10 17 29.85 1011 3 5 N/A
3:53 am 03:53 Cloudy 33 0.6 30 -1.1 89 89 NW 10 17 29.83 1010 10 16 0.01 0.25
4:02 am 04:02 Cloudy 34 1 30 -1 87 87 WNW 7 11 29.88 1012 10 16 N/A
4:53 am 04:53 Cloudy 32 undefined 28 -2.2 85 85 WNW 12 19 29.84 1011 10 16 N/A
5:11 am 05:11 Cloudy 32 undefined 29 -1.7 88 88 WNW 8 13 29.88 1012 10 16 N/A
5:42 am 05:42 Cloudy 30 -1 25 -4 80 80 NW 13 20 29.88 1012 10 16 N/A
5:53 am 05:53 Cloudy 31 -0.6 25 -3.9 79 79 WNW 10 17 29.87 1011 10 16 N/A
6:20 am 06:20 Cloudy 30 -1 27 -3 86 86 WNW 13 20 29.94 1014 10 16 N/A
6:53 am 06:53 Cloudy 30 -1.1 26 -3.3 85 85 WNW 10 17 29.88 1012 9 14 N/A
7:06 am 07:06 Cloudy 30 -1 27 -3 86 86 WNW 8 13 29.94 1014 10 16 N/A
7:53 am 07:53 Cloudy 29 -1.7 24 -4.4 82 82 NW 15 24 29.91 1013 10 16 N/A
8:00 am 08:00 Cloudy 28 -2 25 -4 86 86 NW 16 26 29.97 1015 10 16 N/A
8:12 am 08:12 Cloudy 28 -2 23 -5 80 80 NW 15 24 29.97 1015 10 16 N/A
8:53 am 08:53 Cloudy 28 -2.2 23 -5 81 81 NW 17 28 29.95 1014 10 16 N/A
9:53 am 09:53 Cloudy 27 -2.8 21 -6.1 78 78 NW 13 20 29.96 1015 10 16 N/A
10:53 am 10:53 Cloudy 28 -2.2 22 -5.6 78 78 WNW 13 20 29.98 1015 10 16 N/A
11:53 am 11:53 Cloudy 29 -1.7 22 -5.6 75 75 WNW 16 26 29.98 1015 10 16 N/A
12:53 pm 12:53 Cloudy 29 -1.7 21 -6.1 72 72 WNW 15 24 29.99 1016 10 16 N/A
1:53 pm 13:53 Mostly Cloudy 29 -1.7 21 -6.1 72 72 WNW 13 20 29.99 1016 10 16 N/A
2:53 pm 14:53 Cloudy 29 -1.7 21 -6.1 72 72 WNW 16 26 30.01 1016 10 16 N/A
3:53 pm 15:53 Cloudy 29 -1.7 21 -6.1 72 72 NW 13 20 30.03 1017 10 16 N/A
4:53 pm 16:53 Cloudy 28 -2.2 21 -6.1 75 75 NW 9 15 30.05 1018 10 16 N/A
5:29 pm 17:29 Mostly Cloudy 27 -2.8 21 -6.1 78 78 NW 12 19 30.12 1020 10 16 N/A
5:53 pm 17:53 Cloudy 27 -2.8 20 -6.7 75 75 NW 10 17 30.06 1018 10 16 N/A
6:53 pm 18:53 Mostly Cloudy 26 -3.3 20 -6.7 78 78 WNW 7 11 30.09 1019 10 16 N/A
7:53 pm 19:53 Mostly Cloudy 25 -3.9 20 -6.7 81 81 WNW 5 7 30.09 1019 10 16 N/A
8:53 pm 20:53 Cloudy 25 -3.9 19 -7.2 78 78 WNW 6 9 30.11 1020 10 16 N/A
9:53 pm 21:53 Partly Cloudy 24 -4.4 18 -7.8 77 77 NW 8 13 30.12 1020 10 16 N/A
10:53 pm 22:53 Mostly Cloudy 22 -5.6 16 -8.9 78 78 NNW 6 9 30.16 1021 10 16 N/A
11:46 pm 23:46 Mostly Cloudy 19 -7 16 -9 86 86 N N/A 30.27 1025 10 16 N/A
11:53 pm 23:53 Mostly Cloudy 21 -6.1 16 -8.9 81 81 NNW 3 6 30.18 1022 10 16 N/A

Powered by AerisWeather